Wind_Speed
3 3 4 5 5 5 4 3 2 0 2 3 4 4 4 5 4 4 4 3 3 3 2 2 2 2 2 2 2 2 2 2 3 3 3 4 4 5 6 6 6 7 7
3 4 4 5 5 5 5 4 3 2 2 3 4 4 5 5 5 5 5 4 4 3 3 2 2 2 2 2 2 2 2 2 3 3 3 3 4 5 5 5 6 6 7
4 5 5 6 6 6 6 5 4 3 3 3 4 5 5 5 6 6 5 4 4 3 3 2 2 2 2 2 2 2 2 2 2 3 3 3 4 4 4 5 6 6 6
3 5 6 6 7 7 7 6 6 5 4 4 4 5 5 6 6 6 5 5 4 3 3 2 2 2 2 2 2 1 1 1 2 2 2 3 4 4 4 5 5 6 6
3 4 6 7 7 8 8 7 7 6 5 5 4 5 5 6 6 6 6 5 4 3 3 3 2 2 2 2 2 1 1 1 1 1 2 3 4 4 5 5 5 5 5
3 5 6 8 8 8 9 8 8 7 6 5 5 5 5 6 6 6 6 5 4 4 3 3 3 3 2 2 2 1 1 1 1 1 2 3 4 4 5 4 5 5 5
4 5 7 9 9 10 10 9 9 8 7 6 5 5 5 6 6 6 6 5 4 4 4 4 3 3 3 2 2 1 1 1 1 1 1 2 3 4 4 5 5 5 5
5 6 7 9 10 11 11 11 10 9 8 7 6 5 5 6 6 6 6 5 5 4 4 4 4 3 3 2 2 2 1 1 0 1 2 2 3 4 4 5 5 5 5
4 5 7 9 10 11 12 12 11 10 9 8 7 6 6 6 6 6 5 5 5 5 4 4 3 3 3 2 2 2 1 1 1 2 2 3 3 4 4 4 5 5 5
5 6 7 10 10 12 12 13 13 11 10 9 8 7 7 6 6 6 5 5 5 5 5 4 4 3 3 2 2 2 1 1 1 2 2 3 3 3 4 4 4 4 5
6 8 8 9 11 12 13 14 14 12 11 10 9 8 8 7 7 6 6 6 5 5 5 4 4 3 2 2 1 1 1 0 1 1 2 3 3 3 4 4 4 4 5
7 7 8 9 11 13 14 15 15 14 13 11 10 9 8 8 7 7 6 6 5 5 5 5 4 3 2 2 1 1 1 1 1 2 2 2 3 4 4 5 5 5 5
9 8 8 9 12 14 16 16 16 15 14 13 11 10 9 8 8 7 6 5 5 5 5 5 4 4 2 2 1 1 1 2 1 2 3 3 4 4 5 5 6 6 6
10 10 9 11 12 14 15 16 17 16 15 14 13 11 10 8 8 7 6 5 5 5 5 5 4 4 2 2 2 2 2 2 2 2 3 3 4 4 4 5 6 6 7
10 10 10 11 12 14 15 16 17 17 17 16 14 13 11 9 8 7 6 5 5 4 4 4 4 4 3 2 2 2 2 2 2 2 2 3 4 4 3 4 5 6 7
10 10 11 11 12 14 15 16 17 17 17 16 15 14 12 10 8 7 6 5 4 4 3 3 4 3 3 3 2 2 2 2 2 2 2 2 3 3 3 3 4 5 6
10 11 12 11 12 13 15 16 16 18 18 18 16 14 13 11 10 9 7 6 4 4 3 3 3 3 3 2 2 2 2 2 3 2 1 2 3 3 3 3 3 4 4
10 11 11 11 12 13 15 16 16 17 19 19 17 15 14 12 11 9 7 6 5 4 3 3 3 3 3 2 2 3 3 3 3 2 2 2 2 3 3 3 3 4 4
11 10 10 9 11 12 14 15 16 16 18 19 17 15 14 13 12 10 8 7 6 5 4 3 3 3 3 3 2 2 2 3 2 2 2 2 2 2 3 3 3 4 4
11 10 9 9 10 12 12 13 16 16 18 18 18 16 15 14 12 11 9 8 7 6 5 4 3 3 3 3 2 2 2 2 1 1 1 2 2 2 3 2 2 3 3
10 9 7 9 8 9 11 12 15 17 18 18 17 17 15 15 14 12 10 9 8 7 6 5 5 4 3 3 3 2 2 2 2 1 1 2 2 2 2 2 2 2 2
11 10 7 6 8 9 12 12 14 15 17 17 18 18 17 15 14 13 12 11 9 8 7 6 6 5 4 4 4 3 3 3 3 2 2 2 2 2 1 1 2 1 2
10 8 7 5 6 9 12 13 13 14 15 16 17 18 17 16 15 15 14 13 11 10 9 8 7 6 5 5 5 4 4 3 3 3 3 2 2 1 1 1 1 2 2
9 7 6 5 6 9 11 13 14 14 15 17 17 18 17 17 17 16 15 14 13 12 11 10 9 8 7 7 6 5 4 4 3 3 3 2 2 2 2 2 2 2 3
8 5 5 6 7 8 11 12 14 15 16 17 18 18 18 17 17 17 17 16 15 13 12 11 11 10 9 8 7 6 5 5 4 4 4 4 4 4 4 4 4 4 4
7 5 4 5 7 8 10 12 13 15 16 18 18 19 19 18 18 18 18 17 16 15 14 13 13 12 11 10 9 9 8 7 7 6 6 6 6 6 6 6 6 6 7
Wind_Direction
194 178 177 181 181 176 176 180 173 262 318 325 332 338 343 345 346 348 355 2 2 8 15 23 29 37 42 44 53 63 75 78 74 81 83 92 100 114 120 121 119 116 119
211 191 191 196 196 194 195 199 206 240 286 304 316 324 328 332 336 339 344 350 350 354 357 1 13 16 21 27 41 64 81 90 95 84 92 106 110 120 123 123 125 121 122
220 209 203 207 207 205 207 211 225 239 259 283 303 313 317 322 330 333 336 342 344 346 349 355 359 359 4 19 43 66 85 99 99 87 105 120 120 122 118 128 132 129 127
228 223 214 213 215 216 216 218 229 241 252 268 290 304 312 319 325 328 330 335 338 337 337 348 354 352 355 8 28 49 76 108 98 96 110 124 126 131 128 133 139 135 134
240 224 217 216 219 219 221 223 228 235 246 258 274 293 306 314 320 323 324 328 330 330 330 337 344 343 339 347 5 20 29 79 100 109 112 130 136 141 138 140 144 143 143
255 226 221 217 218 218 220 220 226 235 239 250 263 283 299 308 313 317 319 322 327 331 329 329 332 335 336 338 350 359 3 10 68 106 113 140 147 153 152 152 151 146 142
266 237 227 221 219 219 220 220 226 234 237 245 255 271 288 299 305 309 313 316 322 326 324 321 324 327 332 338 342 348 346 353 24 100 129 146 149 158 165 161 157 151 146
268 247 234 225 222 221 221 220 221 225 231 238 247 260 276 289 298 302 306 310 315 317 318 317 320 324 328 332 335 341 347 354 343 175 169 159 157 167 171 168 165 157 154
276 248 237 229 224 222 221 221 220 223 229 235 241 253 267 282 292 296 299 305 311 316 318 317 315 317 320 323 328 318 313 309 216 182 170 165 172 178 178 179 175 168 167
272 259 244 233 226 225 226 225 223 224 229 235 239 249 261 273 282 286 291 301 307 311 315 317 317 320 320 320 316 307 323 304 206 186 186 177 179 185 183 182 182 177 178
281 267 250 234 231 229 227 227 226 226 229 233 237 248 257 267 273 277 285 293 298 303 305 311 317 318 322 328 314 295 320 216 199 205 207 196 191 193 191 194 195 189 183
293 270 256 237 231 230 228 227 227 227 228 231 236 245 253 262 265 270 278 285 289 294 298 305 310 317 321 326 316 305 307 294 276 226 214 214 209 206 206 210 212 210 200
294 280 266 245 235 232 229 226 225 224 226 229 234 238 247 256 259 264 272 277 279 283 291 298 301 302 306 307 302 309 287 272 283 241 237 233 226 218 216 216 218 221 218
297 279 272 249 239 233 230 226 224 223 223 225 229 233 242 249 253 256 263 268 270 277 286 290 292 292 288 289 291 287 293 281 284 257 248 233 229 220 217 219 223 229 231
291 279 264 253 241 232 228 224 222 222 222 224 226 229 235 243 244 244 250 258 264 276 283 280 282 286 286 280 274 272 280 270 259 272 263 241 224 224 227 227 228 231 233
294 280 264 252 241 232 229 222 219 219 220 221 223 225 230 236 234 237 244 250 257 273 283 285 278 274 272 267 261 254 255 250 246 273 270 238 223 221 226 227 220 222 222
302 288 271 261 241 231 226 220 217 217 219 219 219 222 226 230 230 231 236 237 244 258 270 273 266 255 250 252 249 245 238 241 250 253 246 235 224 224 225 210 196 198 213
312 301 278 267 243 231 224 220 218 216 217 216 216 217 219 222 224 223 225 224 228 238 247 253 249 240 237 237 243 245 238 234 245 242 224 206 205 206 208 205 198 204 212
318 309 282 263 240 228 218 221 221 215 213 214 214 214 215 218 221 222 219 218 226 233 233 237 230 220 227 233 232 228 228 236 247 248 216 193 186 184 179 193 207 217 223
321 312 290 261 239 228 220 221 221 218 214 212 210 212 214 216 218 219 218 219 225 228 227 227 212 207 218 226 220 214 217 223 237 216 178 175 176 177 175 181 193 209 220
319 313 306 266 240 227 226 222 219 217 214 209 210 214 216 216 216 216 218 220 222 224 221 214 205 203 208 207 201 194 191 196 204 207 177 181 186 186 183 187 180 191 212
317 305 299 275 244 229 221 218 213 214 212 210 213 216 217 217 216 216 217 219 218 218 215 211 209 208 211 208 197 186 181 183 185 180 175 162 162 167 179 177 162 174 206
324 303 301 280 249 229 220 219 216 216 216 216 214 214 215 214 215 215 216 217 216 214 215 215 214 213 213 210 200 191 184 174 174 177 178 176 177 183 197 195 187 195 210
326 307 295 268 248 230 224 221 219 216 214 211 211 213 214 215 215 215 216 217 217 217 217 218 218 221 221 216 210 206 197 193 192 195 203 215 221 227 234 239 236 237 240
327 306 287 267 247 232 225 220 216 214 212 212 213 214 215 217 218 217 218 219 220 221 221 223 223 227 227 222 221 219 216 216 218 222 230 242 249 253 254 252 253 258 265
330 317 297 271 249 232 221 218 217 213 212 212 214 216 216 217 219 220 220 221 223 224 225 227 229 231 232 231 231 230 229 231 234 237 241 248 256 260 261 262 264 267 272
Height
5885 5885 5886 5887 5888 5889 5890 5891 5892 5892 5893 5893 5894 5894 5894 5893 5893 5892 5892 5891 5890 5889 5889 5888 5888 5887 5887 5886 5886 5886 5886 5886 5885 5885 5885 5885 5885 5885 5885 5885 5885 5885 5885
5884 5885 5886 5887 5888 5889 5890 5891 5892 5893 5893 5894 5894 5894 5894 5894 5893 5893 5892 5891 5890 5890 5889 5888 5888 5887 5887 5887 5886 5886 5886 5886 5886 5886 5886 5886 5886 5886 5886 5886 5886 5886 5886
5884 5884 5885 5886 5888 5889 5890 5891 5892 5892 5893 5894 5894 5894 5894 5894 5894 5893 5892 5891 5891 5890 5889 5888 5888 5888 5887 5887 5886 5886 5886 5886 5886 5886 5886 5886 5886 5886 5886 5887 5887 5887 5887
5883 5883 5884 5886 5887 5888 5889 5890 5891 5892 5893 5893 5894 5894 5894 5894 5894 5893 5893 5892 5891 5890 5889 5888 5888 5887 5887 5887 5886 5886 5886 5886 5886 5886 5887 5887 5887 5887 5887 5887 5887 5888 5888
5881 5882 5883 5885 5886 5887 5889 5890 5891 5892 5892 5893 5894 5894 5894 5894 5894 5893 5893 5892 5891 5890 5889 5889 5888 5887 5887 5887 5887 5886 5886 5886 5886 5886 5887 5887 5887 5888 5888 5888 5888 5889 5889
5880 5881 5882 5883 5885 5886 5888 5889 5890 5891 5892 5893 5894 5894 5894 5894 5894 5893 5893 5892 5891 5890 5889 5889 5888 5888 5887 5887 5887 5887 5886 5886 5886 5886 5887 5887 5887 5888 5888 5889 5889 5889 5890
5879 5880 5881 5882 5884 5885 5887 5888 5889 5890 5891 5892 5893 5893 5894 5894 5894 5893 5893 5892 5891 5890 5889 5889 5888 5888 5888 5887 5887 5887 5887 5887 5887 5887 5887 5887 5888 5888 5889 5889 5890 5890 5890
5878 5878 5879 5881 5882 5884 5885 5886 5888 5889 5890 5891 5892 5893 5893 5893 5893 5893 5892 5891 5891 5890 5889 5889 5888 5888 5887 5887 5887 5887 5887 5887 5887 5887 5887 5888 5888 5888 5889 5890 5890 5890 5891
5876 5877 5878 5879 5880 5882 5884 5885 5886 5887 5889 5890 5891 5892 5892 5892 5893 5892 5892 5891 5890 5890 5889 5888 5888 5888 5887 5887 5887 5887 5887 5887 5887 5887 5887 5887 5888 5889 5889 5890 5890 5891 5891
5874 5874 5875 5876 5878 5880 5882 5884 5885 5886 5887 5889 5890 5891 5891 5892 5892 5892 5891 5891 5890 5889 5889 5888 5888 5887 5887 5887 5887 5886 5886 5886 5886 5887 5887 5887 5888 5889 5889 5890 5890 5891 5891
5872 5872 5873 5874 5875 5878 5880 5881 5883 5884 5886 5887 5888 5889 5890 5891 5891 5891 5890 5890 5889 5889 5888 5888 5887 5887 5887 5886 5886 5886 5886 5886 5886 5887 5887 5887 5887 5888 5889 5889 5890 5890 5891
5870 5869 5870 5871 5873 5875 5877 5879 5881 5883 5884 5886 5887 5888 5889 5889 5890 5890 5889 5889 5889 5888 5888 5887 5887 5887 5886 5886 5886 5885 5885 5885 5886 5886 5887 5887 5887 5887 5888 5888 5889 5890 5890
5866 5866 5867 5868 5870 5872 5873 5875 5878 5880 5882 5884 5885 5886 5887 5888 5888 5889 5888 5888 5888 5887 5887 5887 5887 5886 5886 5886 5885 5885 5885 5885 5885 5886 5886 5886 5886 5886 5887 5887 5888 5889 5889
5862 5863 5864 5865 5867 5868 5870 5872 5875 5877 5880 5881 5883 5884 5885 5886 5887 5887 5887 5887 5887 5887 5886 5886 5886 5885 5885 5885 5885 5885 5885 5885 5885 5885 5885 5885 5885 5885 5885 5886 5887 5887 5888
5861 5860 5861 5862 5863 5865 5867 5869 5871 5874 5877 5879 5881 5882 5884 5885 5885 5886 5886 5886 5886 5886 5886 5885 5885 5885 5884 5884 5884 5884 5884 5884 5884 5884 5884 5884 5884 5884 5885 5885 5885 5886 5887
5857 5857 5857 5857 5859 5861 5864 5866 5868 5871 5874 5876 5878 5880 5882 5883 5884 5885 5885 5885 5885 5885 5885 5885 5884 5884 5884 5884 5884 5883 5883 5883 5883 5883 5883 5883 5883 5883 5884 5884 5884 5884 5885
5854 5853 5853 5853 5855 5857 5859 5862 5864 5867 5871 5873 5876 5878 5879 5881 5882 5883 5884 5884 5884 5884 5884 5884 5884 5883 5883 5883 5883 5883 5883 5882 5882 5882 5882 5882 5882 5882 5883 5883 5883 5883 5884
5850 5849 5849 5850 5852 5854 5856 5858 5861 5864 5867 5870 5873 5875 5877 5879 5880 5881 5882 5883 5883 5884 5884 5883 5883 5883 5883 5882 5882 5882 5882 5882 5881 5881 5881 5881 5881 5882 5882 5882 5882 5882 5883
5847 5847 5846 5847 5849 5851 5853 5855 5857 5860 5864 5867 5870 5872 5874 5877 5878 5880 5881 5881 5882 5882 5883 5883 5883 5882 5882 5882 5882 5882 5882 5881 5881 5881 5881 5881 5881 5881 5881 5881 5881 5881 5882
5846 5845 5844 5845 5846 5847 5849 5852 5855 5858 5861 5864 5867 5869 5872 5874 5876 5878 5879 5880 5881 5881 5882 5882 5882 5882 5882 5881 5881 5881 5881 5881 5881 5880 5880 5880 5881 5881 5881 5881 5881 5881 5881
5844 5842 5842 5842 5842 5845 5847 5850 5853 5855 5858 5861 5864 5866 5869 5871 5874 5875 5877 5878 5879 5880 5880 5881 5881 5881 5881 5881 5881 5881 5881 5881 5881 5880 5880 5880 5880 5880 5880 5880 5880 5880 5880
5842 5840 5840 5840 5841 5843 5846 5848 5850 5852 5854 5857 5860 5864 5866 5869 5871 5873 5875 5876 5877 5878 5879 5879 5880 5881 5881 5881 5881 5881 5881 5881 5881 5881 5881 5880 5880 5880 5880 5880 5879 5879 5879
5841 5840 5839 5840 5840 5842 5843 5845 5847 5849 5852 5855 5858 5861 5863 5866 5868 5870 5872 5874 5875 5876 5877 5878 5879 5880 5880 5880 5880 5881 5881 5881 5881 5881 5881 5880 5880 5880 5880 5879 5879 5879 5878
5840 5839 5839 5839 5839 5840 5841 5843 5845 5847 5849 5852 5855 5858 5860 5862 5865 5867 5869 5871 5873 5874 5875 5876 5877 5878 5878 5879 5879 5880 5880 5880 5880 5881 5881 5880 5880 5880 5879 5879 5878 5878 5877
5839 5838 5838 5837 5838 5838 5839 5841 5843 5845 5847 5849 5852 5854 5857 5860 5862 5864 5867 5869 5870 5872 5873 5875 5876 5876 5877 5877 5878 5878 5879 5879 5879 5880 5880 5880 5880 5879 5879 5878 5878 5877 5877
5838 5836 5836 5836 5836 5836 5837 5839 5840 5842 5844 5846 5849 5851 5854 5857 5859 5862 5864 5866 5868 5869 5871 5872 5873 5874 5875 5875 5876 5877 5877 5878 5878 5878 5878 5878 5878 5878 5878 5877 5877 5876 5876